Regional Weather Roundup
Issued by NWS Jackson, KY

Home | Current Version | Previous Version | Text Only | Print | Product List | Glossary Off
Versions: 1 2 3 4 5 6 7 8 9 10 11 12 13 14 15 16 17 18 19 20 21 22 23 24 25 26

000
ASUS43 KJKL 250710
RWRJKL

EAST KENTUCKY HOURLY WEATHER ROUNDUP
NATIONAL WEATHER SERVICE JACKSON KY
300 AM EDT TUE APR 25 2017

NOTE: "FAIR" INDICATES FEW OR NO CLOUDS BELOW 12,000 FEET WITH
NO SIGNIFICANT WEATHER AND/OR OBSTRUCTIONS TO VISIBILITY.

* THESE REPORTS ARE NOT UNDER NWS QUALITY CONTROL AND MAY NOT
  REPORT WEATHER SUCH AS PRECIPITATION AND FOG.

KYZ079-080-083-085-087-088-110-112-115-119-120-250800
...EASTERN KENTUCKY...

CITY           SKY/WX    TMP DP  RH WIND       PRES   REMARKS
JACKSON        PTCLDY    53  51  93 CALM      29.76F
LONDON         PTCLDY    52  49  89 CALM      29.77R
SOMERSET*      PTCLDY    55  50  82 CALM      29.77S
MONTICELLO*    CLOUDY    57  55  93 W6        29.77F
WILLIAMSBURG*  SUNNY     50  50 100 CALM      29.77R
MIDDLESBORO*   MOCLDY    53  53 100 CALM      29.76F
HARLAN APT*    CLOUDY    52  50  93 CALM      29.74F
PIKE CO APT*     N/A     53  53  99 NE8       29.75F
BIG SANDY APT* MOSUNNY   53  53 100 CALM      29.75F
$$

KYZ035-036-041-042-044-050-067-078-099-250800
...CENTRAL KENTUCKY...

CITY           SKY/WX    TMP DP  RH WIND       PRES   REMARKS
FLEMING/MASON* MOCLDY    53  51  92 CALM      29.80F
DANVILLE*      CLEAR     54  52  94 E3        29.77F
LEXINGTON      CLEAR     56  51  84 E8        29.77F
FRANKFORT      CLEAR     56  50  80 E5        29.76F
LOUISVILLE     PTCLDY    59  53  80 CALM      29.76F
LEBANON*         N/A     55  54  94 CALM      29.77S
GLASGOW*       PTCLDY   N/A N/A N/A CALM      29.76S FOG
BOWLING GREEN  CLEAR     55  55 100 CALM      29.76S
$$

KYZ091>093-OHZ055-061-077-WVZ005-015-034-035-042-250800
...SOUTHERN OHIO/WEST VIRGINIA...

CITY           SKY/WX    TMP DP  RH WIND       PRES   REMARKS
COVINGTON      MOCLDY    57  52  83 E8        29.79F
COLUMBUS       CLOUDY    55  48  77 E9        29.83F
DAYTON         PTCLDY    53  47  79 E10       29.82F
WILMINGTON     MOCLDY    52  49  89 NE5       29.81F
HUNTINGTON     CLOUDY    55  50  83 E8        29.77F
CHARLESTON     CLOUDY    55  48  77 NE7       29.78F
PINEVILLE*     DRIZZLE   54  52  93 MISG      29.82S
BECKLEY        CLOUDY    51  47  86 NE6       29.78F
BLUEFIELD      FOG       47  46  97 E7        29.77F VSB 1/4
LOGAN CO APT*  CLOUDY    55  50  82 E5        29.77F
$$

VAZ002-007-008-TNZ017-027-036-066-071-250800
...SOUTHWEST VIRGINIA/EAST TENNESSEE...

CITY           SKY/WX    TMP DP  RH WIND       PRES   REMARKS
WISE*          CLOUDY    50  50 100 NE5       29.77F
JONESVILLE*      N/A     50  50 100 CALM      29.75F
ABINGDON*      CLOUDY    55  53  93 E7        29.74S
BRISTOL        CLOUDY    54  50  86 E3        29.73F
SEVIERVILLE*   SUNNY     52  50  93 CALM      29.72
KNOXVILLE      CLEAR     55  51  86 N7        29.73R
OAK RIDGE      PTCLDY    55  52  89 CALM      29.76S
CROSSVILLE     CLOUDY    55  53  93 CALM      29.77F
NASHVILLE      CLEAR     54  53  97 CALM      29.77S
$$

...KEY TO REMARKS...
VSB - VISIBILITY IN MILES
WCI - WIND CHILL INDEX
HX  - HEAT INDEX

$$




USA.gov is the U.S. government's official web portal to all federal, state and local government web resources and services.